This demonstration page uses our WeatherBlox Daily Observations layout. Learn more.

Left ArrowRight Arrow

Hourly Observations for September 7, 2020

Temp ( °F °C ) Dew Point ( °F °C ) Humidity (%) Winds ( mph kmh ) Pressure ( in mb ) Visibility ( mi km ) Precip ( " mm )
12:53 am 00:53 Clear 79 26.1 58 14.4 49 49 SSE 13 20 29.87 1011 10 16 0.00 0.00
1:53 am 01:53 Clear 77 25 60 15.6 56 56 SE 12 19 29.85 1011 10 16 0.00 0.00
2:53 am 02:53 Clear 75 23.9 60 15.6 60 60 SE 10 17 29.84 1011 10 16 0.00 0.00
3:53 am 03:53 Clear 73 22.8 60 15.6 64 64 SE 10 17 29.83 1010 10 16 0.00 0.00
4:53 am 04:53 Clear 72 22.2 60 15.6 66 66 SE 10 17 29.81 1010 10 16 0.00 0.00
5:53 am 05:53 Clear 70 21.1 60 15.6 71 71 SE 9 15 29.80 1009 10 16 0.00 0.00
6:53 am 06:53 Clear 69 20.6 60 15.6 73 73 SE 9 15 29.80 1009 10 16 0.00 0.00
7:53 am 07:53 Sunny 69 20.6 60 15.6 73 73 SE 9 15 29.81 1010 10 16 0.00 0.00
8:53 am 08:53 Sunny 72 22.2 60 15.6 66 66 SE 14 22 29.81 1010 10 16 0.00 0.00
9:53 am 09:53 Sunny 78 25.6 61 16.1 56 56 SSE 10 17 29.80 1009 10 16 0.00 0.00
10:53 am 10:53 Sunny 83 28.3 60 15.6 46 46 SSE 13 20 29.79 1009 10 16 0.00 0.00
11:53 am 11:53 Sunny 88 31.1 58 14.4 36 36 SSE 10 17 29.77 1008 10 16 0.00 0.00
12:53 pm 12:53 Sunny 91 32.8 57 13.9 32 32 SSE 15 24 29.73 1007 10 16 0.00 0.00
1:53 pm 13:53 Sunny 94 34.4 54 12.2 26 26 SE 7 11 29.70 1006 10 16 0.00 0.00
2:53 pm 14:53 Sunny 96 35.6 51 10.6 22 22 undefined N/A 29.66 1004 10 16 0.00 0.00
3:53 pm 15:53 Sunny 97 36.1 47 8.3 18 18 SSE 13 20 29.62 1003 10 16 0.00 0.00
4:53 pm 16:53 Sunny 98 36.7 47 8.3 17 17 VRB 7 11 29.58 1002 10 16 0.00 0.00
5:53 pm 17:53 Sunny 98 36.7 47 8.3 17 17 SSW 9 15 29.56 1001 10 16 0.00 0.00
6:53 pm 18:53 Sunny 97 36.1 50 10 20 20 SE 14 22 29.56 1001 10 16 0.00 0.00
7:53 pm 19:53 Sunny 93 33.9 54 12.2 27 27 SE 16 26 29.56 1001 10 16 0.00 0.00
8:53 pm 20:53 Clear 90 32.2 54 12.2 29 29 SE 21 33 29.57 1001 10 16 0.00 0.00
9:53 pm 21:53 Clear 85 29.4 61 16.1 45 45 SE 26 43 29.59 1002 10 16 0.00 0.00
10:53 pm 22:53 Clear 82 27.8 62 16.7 51 51 SE 20 31 29.60 1002 10 16 0.00 0.00
11:53 pm 23:53 Clear 79 26.1 63 17.2 58 58 SE 24 39 29.60 1002 10 16 0.00 0.00

Powered by AerisWeather